{"data":{"norad_id":57411,"intl_designator":"2023-102H","name":"STARLINK-30214","alt_names":[],"object_type":"PAYLOAD","status":"ACTIVE","operator":null,"country":"US","launch_date":"2023-07-20","launch_site_code":"AFWTR","launch_vehicle":null,"mission":null,"orbit_class":"UNKNOWN","rcs_meters":null,"size_class":null,"mass_kg":null,"dimensions":null,"purposes":["comms"],"wikipedia_slug":null,"has_3d_model":false,"image_url":null,"decayed_at":null,"tle_current":{"epoch":"2026-09-20T08:39:38.059488Z","epoch_age_seconds":139999,"freshness":"FRESH","line1":"1 57411U 23102H   26263.36085717  .00000224  00000+0  17685-4 0  9990","line2":"2 57411  43.0044 229.0814 0001983 257.2763 102.7867 15.27583907175960","mean_motion":15.27583907,"eccentricity":0.0001983,"inclination_deg":43.0044,"raan_deg":229.0814,"arg_perigee_deg":257.2763,"mean_anomaly_deg":102.7867,"bstar":1.7685e-5,"rev_number":17596,"period_min":94.266507613843,"perigee_km":481.67682621811,"apogee_km":484.397967984,"semimajor_km":6861.1743971011,"source":"CELESTRAK","updated_at":"2026-09-21T09:00:33.624074Z"}}}